Hourly Weather Aliağa

Today, 4 December, Friday

Time Temperature Precipitation Wind Pressure Humidity
00:00 +10°C° 0 mm 2 mps 758 mmHg 71%
01:00 +10°C° 0 mm 2 mps 757 mmHg 71%
02:00 +10°C° 0 mm 3 mps 757 mmHg 69%
03:00 +10°C° 0 mm 3 mps 757 mmHg 70%
04:00 +10°C° 0 mm 3 mps 756 mmHg 71%
05:00 +9°C° 0 mm 3 mps 756 mmHg 71%
06:00 +10°C° 0 mm 3 mps 756 mmHg 70%
07:00 +10°C° 0 mm 3 mps 756 mmHg 69%
08:00 +10°C° 0 mm 3 mps 756 mmHg 65%
09:00 +12°C° 0 mm 3 mps 756 mmHg 59%
10:00 +14°C° 0 mm 3 mps 756 mmHg 53%
11:00 +17°C° 0 mm 3 mps 756 mmHg 46%
12:00 +18°C° 0 mm 3 mps 756 mmHg 45%
13:00 +19°C° 0 mm 3 mps 755 mmHg 44%
14:00 +20°C° 0 mm 4 mps 755 mmHg 43%
15:00 +19°C° 0.1 mm 4 mps 755 mmHg 51%
16:00 +17°C° 0.1 mm 4 mps 755 mmHg 59%
17:00 +15°C° 0.1 mm 4 mps 755 mmHg 68%
18:00 +16°C° 0.1 mm 3 mps 756 mmHg 69%
19:00 +15°C° 0.1 mm 2 mps 756 mmHg 70%
20:00 +15°C° 0.1 mm 2 mps 756 mmHg 70%
21:00 +15°C° 0 mm 2 mps 756 mmHg 70%
22:00 +15°C° 0 mm 2 mps 756 mmHg 69%
23:00 +14°C° 0 mm 2 mps 757 mmHg 68%

Tomorrow, 5 December, Saturday

Time Temperature Precipitation Wind Pressure Humidity
00:00 +14°C° 0 mm 2 mps 757 mmHg 68%
01:00 +14°C° 0 mm 2 mps 757 mmHg 67%
02:00 +14°C° 0 mm 2 mps 757 mmHg 67%
03:00 +13°C° 0 mm 2 mps 757 mmHg 67%
04:00 +13°C° 0 mm 2 mps 757 mmHg 68%
05:00 +13°C° 0 mm 2 mps 757 mmHg 68%
06:00 +13°C° 0 mm 2 mps 757 mmHg 68%
07:00 +13°C° 0 mm 2 mps 757 mmHg 68%
08:00 +13°C° 0 mm 2 mps 757 mmHg 68%
09:00 +15°C° 0 mm 2 mps 757 mmHg 62%
10:00 +17°C° 0 mm 2 mps 758 mmHg 56%
11:00 +19°C° 0 mm 2 mps 758 mmHg 50%
12:00 +20°C° 0 mm 1 mps 757 mmHg 48%
13:00 +21°C° 0 mm 1 mps 757 mmHg 46%
14:00 +22°C° 0 mm 1 mps 757 mmHg 44%
15:00 +20°C° 0 mm 1 mps 757 mmHg 50%
16:00 +17°C° 0 mm 0 mps 757 mmHg 55%
17:00 +15°C° 0 mm 0 mps 757 mmHg 60%
18:00 +15°C° 0 mm 0 mps 757 mmHg 62%
19:00 +15°C° 0 mm 1 mps 757 mmHg 63%
20:00 +15°C° 0 mm 1 mps 758 mmHg 65%
21:00 +14°C° 0 mm 1 mps 758 mmHg 66%
22:00 +14°C° 0 mm 1 mps 758 mmHg 66%
23:00 +14°C° 0 mm 1 mps 758 mmHg 66%

Day after tomorrow, 6 December, Sunday

Time Temperature Precipitation Wind Pressure Humidity
00:00 +14°C° 0 mm 1 mps 758 mmHg 67%
01:00 +13°C° 0 mm 1 mps 758 mmHg 68%
02:00 +13°C° 0 mm 1 mps 758 mmHg 69%
03:00 +13°C° 0 mm 1 mps 758 mmHg 70%
04:00 +12°C° 0 mm 1 mps 758 mmHg 71%
05:00 +12°C° 0 mm 2 mps 757 mmHg 72%
06:00 +12°C° 0 mm 2 mps 757 mmHg 72%
07:00 +12°C° 0 mm 2 mps 757 mmHg 71%
08:00 +12°C° 0 mm 2 mps 757 mmHg 71%
09:00 +14°C° 0 mm 2 mps 758 mmHg 64%
10:00 +16°C° 0 mm 1 mps 758 mmHg 57%
11:00 +19°C° 0 mm 1 mps 758 mmHg 50%
12:00 +20°C° 0 mm 1 mps 757 mmHg 48%
13:00 +21°C° 0 mm 1 mps 757 mmHg 46%
14:00 +21°C° 0 mm 1 mps 756 mmHg 45%
15:00 +20°C° 0 mm 1 mps 756 mmHg 50%
16:00 +17°C° 0 mm 0 mps 756 mmHg 55%
17:00 +15°C° 0 mm 0 mps 756 mmHg 61%
18:00 +16°C° 0 mm 1 mps 756 mmHg 62%
19:00 +15°C° 0 mm 1 mps 756 mmHg 64%
20:00 +14°C° 0 mm 1 mps 756 mmHg 66%
21:00 +14°C° 0 mm 1 mps 756 mmHg 66%
22:00 +14°C° 0 mm 1 mps 756 mmHg 67%
23:00 +14°C° 0 mm 2 mps 756 mmHg 68%

7 December, Monday

Time Temperature Precipitation Wind Pressure Humidity
00:00 +13°C° 0 mm 2 mps 756 mmHg 69%
01:00 +13°C° 0 mm 2 mps 756 mmHg 70%
02:00 +13°C° 0 mm 2 mps 756 mmHg 72%
03:00 +12°C° 0 mm 3 mps 756 mmHg 72%
04:00 +11°C° 0 mm 3 mps 755 mmHg 73%
05:00 +11°C° 0 mm 3 mps 755 mmHg 74%
06:00 +11°C° 0 mm 3 mps 755 mmHg 73%
07:00 +11°C° 0 mm 3 mps 755 mmHg 73%
08:00 +11°C° 0 mm 3 mps 755 mmHg 72%
09:00 +13°C° 0 mm 4 mps 754 mmHg 65%
10:00 +17°C° 0 mm 4 mps 754 mmHg 57%
11:00 +19°C° 0 mm 5 mps 754 mmHg 50%
12:00 +17°C° 0.3 mm 5 mps 754 mmHg 55%
13:00 +17°C° 0.3 mm 6 mps 753 mmHg 60%
14:00 +17°C° 0.3 mm 6 mps 753 mmHg 65%
15:00 +16°C° 0.7 mm 5 mps 753 mmHg 71%
16:00 +16°C° 0.7 mm 5 mps 753 mmHg 77%
17:00 +15°C° 0.7 mm 4 mps 754 mmHg 82%
18:00 +14°C° 0.1 mm 4 mps 754 mmHg 84%
19:00 +14°C° 0.1 mm 4 mps 754 mmHg 86%
20:00 +13°C° 0.1 mm 3 mps 754 mmHg 87%
21:00 +13°C° 0 mm 3 mps 755 mmHg 87%
22:00 +13°C° 0 mm 3 mps 755 mmHg 88%
23:00 +12°C° 0 mm 3 mps 755 mmHg 88%

8 December, Tuesday

Time Temperature Precipitation Wind Pressure Humidity
00:00 +12°C° 0 mm 3 mps 755 mmHg 88%
01:00 +12°C° 0 mm 3 mps 755 mmHg 88%
02:00 +12°C° 0 mm 3 mps 755 mmHg 87%
03:00 +12°C° 0 mm 3 mps 755 mmHg 88%
04:00 +12°C° 0 mm 3 mps 755 mmHg 88%
05:00 +11°C° 0 mm 3 mps 755 mmHg 88%
06:00 +12°C° 0.1 mm 3 mps 755 mmHg 88%
07:00 +12°C° 0.1 mm 3 mps 755 mmHg 88%
08:00 +12°C° 0.1 mm 3 mps 755 mmHg 88%
09:00 +13°C° 0.3 mm 3 mps 756 mmHg 80%
10:00 +16°C° 0.3 mm 3 mps 756 mmHg 73%
11:00 +17°C° 0.3 mm 3 mps 756 mmHg 65%
12:00 +17°C° 0.2 mm 4 mps 756 mmHg 63%
13:00 +18°C° 0.2 mm 4 mps 756 mmHg 60%
14:00 +18°C° 0.2 mm 4 mps 755 mmHg 58%
15:00 +17°C° 0.2 mm 4 mps 755 mmHg 64%
16:00 +16°C° 0.2 mm 3 mps 755 mmHg 70%
17:00 +14°C° 0.2 mm 3 mps 755 mmHg 76%
18:00 +13°C° 0.1 mm 3 mps 756 mmHg 78%
19:00 +13°C° 0.1 mm 3 mps 756 mmHg 79%
20:00 +12°C° 0.1 mm 3 mps 756 mmHg 81%
21:00 +12°C° 0.1 mm 3 mps 756 mmHg 81%
22:00 +12°C° 0.1 mm 4 mps 756 mmHg 82%
23:00 +12°C° 0.1 mm 4 mps 756 mmHg 82%

9 December, Wednesday

Time Temperature Precipitation Wind Pressure Humidity
00:00 +12°C° 0 mm 4 mps 756 mmHg 83%
01:00 +11°C° 0 mm 4 mps 756 mmHg 84%
02:00 +11°C° 0 mm 4 mps 757 mmHg 85%
03:00 +11°C° 0 mm 4 mps 757 mmHg 85%
04:00 +11°C° 0 mm 4 mps 757 mmHg 86%
05:00 +11°C° 0 mm 4 mps 757 mmHg 86%
06:00 +11°C° 0.1 mm 4 mps 757 mmHg 85%
07:00 +11°C° 0.1 mm 4 mps 757 mmHg 85%
08:00 +12°C° 0.1 mm 4 mps 757 mmHg 84%
09:00 +13°C° 0.1 mm 4 mps 757 mmHg 79%
10:00 +14°C° 0.1 mm 5 mps 757 mmHg 74%
11:00 +16°C° 0.1 mm 5 mps 758 mmHg 68%
12:00 +16°C° 0.1 mm 5 mps 757 mmHg 65%
13:00 +17°C° 0.1 mm 5 mps 757 mmHg 61%
14:00 +19°C° 0.1 mm 6 mps 757 mmHg 58%
15:00 +17°C° 0 mm 5 mps 756 mmHg 62%
16:00 +16°C° 0 mm 5 mps 756 mmHg 66%
17:00 +15°C° 0 mm 4 mps 756 mmHg 70%
18:00 +14°C° 0 mm 4 mps 756 mmHg 72%
19:00 +14°C° 0 mm 5 mps 756 mmHg 74%
20:00 +14°C° 0 mm 5 mps 756 mmHg 76%
21:00 +14°C° 0 mm 5 mps 756 mmHg 76%
22:00 +13°C° 0 mm 5 mps 756 mmHg 76%
23:00 +13°C° 0 mm 5 mps 756 mmHg 77%
Show more